Showing default

LINK, 69792

Orbit data source: Space-Track

LINK, 69792 is an American payload satellite in LEO that was launched on Fri, 03 Jul 2026 UTC via a PEGASUS XL launch vehicle from the Kwajalein (KWAJL). Payload-class satellites include a variety of spacecraft equipped with specific instruments for various scientific and technological missions. These include communications satellites like Starlink; space stations such as the ISS; scientific satellites like the Hubble; Earth observation satellites from companies like Planet Labs, Umbra, and HawkEye 360; GPS; miniature CubeSats for education and research; and military/defense satellites.

Not visible in the next 10 days
Identifier
69792, 2026-152A
Orbit
LEO
Country
Flag of USUS
Related business
Manufacturer
KATAL
Mission
Operational spacecraft
Bus & Motor
LINK, AOCS
Mass
430 kg wet, 365 kg dry
Launch date (UTC)
2026-07-03 (3 weeks ago)
Launch vehicle
PEGASUS XL
Launch site
Kwajalein (KWAJL)
Object type
Payload
Rocket body
Debris
Shape & HBR
Unknown shape, 6.3 m
Radar Cross Section
Large (>1 m²)

Expand to show TLE details & history
Last TLE update: 17 hours ago

TLE from 17 hours ago
0 LINK
1 69792U 26152A   26202.48382856  .00104063  00000-0  87541-3 0  9997
2 69792  20.5930 278.9369 0023518  85.5169 274.7964 15.67728585  2848
Epoch: 2026-07-21T11:36Z
TLE epoch observation values (Epoch: 2026-07-21T11:36:42.787Z)
Latitude
-0.00001°
Longitude
165.50574°
Altitude
361.667 km
Speed
7.696 km/s
True Right ascension
18h 35m 44s
True Declination
0° 00' 00"
Sunlit
Object was in full shadow at epoch
Visualization orbit readout
Latitude
Unknown
Longitude
Unknown
Altitude
Unknown
Speed
Unknown
Apparent Right ascension
Unknown
Apparent Declination
Unknown
Sunlit
N/A
Visualization observer readout
Local Sidereal Time
18:02:13
Azimuth
Unknown
Elevation
Unknown
Doppler factor
Unknown
Orbital elements
Apogee altitude
386.601 km
Perigee altitude
354.857 km
Semi-major axis
6,748.866 km
Eccentricity
0.00235
Inclination
20.593°
RAAN
278.9369°
Arg. of periapsis
85.5169°
True anomaly
274.52778°
Mean anomaly
274.7964°
Eccentric anomaly
274.6621°
Mean motion
3.91469 °/min
Orbital period
91.96 mins
BSTAR
0.00087541
Loading maneuver chart data...
Computing Atmospheric mass density...
Loading historical data...
Loading historical data...
Loading historical data...
Loading historical data...
Loading historical data...
Loading historical data...
Loading historical data...
Other satellites on launch #152 in the year 2026 (2026-07-03 UTC)

Documentation

Showing up to 5 results
|